[[{"header":{"parameterUnit":"m.s-1","parameterCategory":1,"la1":30.2991,"la2":30.254,"lo1":-89.0895,"lo2":-89.0444,"dy":0.0017,"dx":0.0017,"nx":28,"ny":28,"refTime":"2025-12-10T09:00:00:Z","depth":0,"parameterNumber":2,"parameterNumberName":"U-component_of_WINDS"},"data":[0,0,0,0,0,0,0,0,0,0,0,0,0,0,0,0,0,0,0,0,0,0,0,0,0,0,0,0,0,0,0,0,0,0,0,0,0,0,0,0,0,0,0,0,0,0,0,0,0,0,0,0,0,0,0,0,0,0,-0.1645,-0.1646,0,-0.1661,-0.1662,-0.1662,-0.167,-0.167,-0.167,-0.167,-0.1687,-0.1688,-0.1688,0,0,0,0,0,0,0,0,0,0,0,0,0,-0.1623,-0.1624,-0.1645,-0.1646,-0.1646,-0.1661,-0.1662,-0.1662,-0.167,-0.167,-0.167,-0.167,-0.1687,-0.1688,-0.1688,0,0,0,0,0,0,0,0,0,0,0,0,0,-0.1635,-0.1624,-0.1645,-0.1652,-0.1653,-0.1661,-0.1662,-0.1662,-0.167,-0.167,-0.167,-0.167,-0.1687,-0.1688,-0.1688,-0.1692,0,0,-0.1691,-0.1691,0,0,0,0,0,0,0,0,-0.1635,-0.1636,-0.1651,-0.1651,-0.1652,-0.1664,-0.166,-0.1672,-0.167,-0.1664,-0.167,-0.167,-0.168,-0.1681,-0.1684,-0.1693,-0.1694,-0.1691,-0.1691,-0.1691,-0.1691,0,0,0,0,0,0,0,-0.1634,-0.1636,-0.1652,-0.1651,-0.1652,-0.1654,-0.1656,-0.1662,-0.1671,-0.1664,-0.1665,-0.1667,-0.168,-0.1683,-0.1684,-0.1694,-0.1691,-0.1691,-0.1692,-0.1692,-0.1709,-0.1709,0,0,0,0,0,0,-0.1632,-0.1635,-0.1651,-0.1652,-0.1643,-0.1655,-0.1657,-0.166,-0.1671,-0.1673,-0.1666,-0.1667,-0.1682,-0.1684,-0.1685,-0.1691,-0.1691,-0.1692,-0.1692,-0.1708,-0.1709,-0.1709,0,0,0,0,0,0,-0.1631,-0.1633,-0.1651,-0.1644,-0.1646,-0.1655,-0.1659,-0.166,-0.1664,-0.1673,-0.1675,-0.1668,-0.1682,-0.1684,-0.1691,-0.1692,-0.1692,-0.1693,-0.1708,-0.1709,-0.1709,-0.1703,0,0,0,0,0,0,-0.1631,-0.1633,-0.1634,-0.1644,-0.1646,-0.1655,-0.1659,-0.1661,-0.1665,-0.1665,-0.1675,-0.1677,-0.1682,-0.169,-0.1691,-0.1693,-0.1693,-0.1708,-0.1708,-0.1709,-0.1703,-0.1702,-0.1702,0,0,0,0,0,-0.163,-0.1632,-0.1634,-0.1636,-0.1648,-0.1655,-0.1657,-0.1663,-0.1665,-0.1666,-0.1673,-0.1676,-0.1691,-0.169,-0.1692,-0.1694,-0.1708,-0.1708,-0.1709,-0.1703,-0.1702,-0.1702,0,0,0,0,0,0,-0.1622,-0.1633,-0.1636,-0.1641,-0.1647,-0.1657,-0.1659,-0.1663,-0.1669,-0.1669,-0.1677,-0.1679,-0.1685,-0.169,-0.1689,-0.1699,-0.17,-0.1701,-0.1695,-0.1695,-0.1695,-0.1694,-0.1694,0,0,0,0,0,-0.1621,-0.1626,-0.1635,-0.1639,-0.1642,-0.165,-0.1653,-0.1658,-0.1665,-0.1667,-0.1674,-0.1681,-0.1688,-0.1691,-0.1698,-0.1703,-0.1706,-0.1706,-0.1705,-0.1705,-0.1705,-0.171,-0.171,-0.1709,-0.1709,-0.1709,0,0,-0.1619,-0.1625,-0.1628,-0.1637,-0.1643,-0.1648,-0.1652,-0.1657,-0.1661,-0.1668,-0.1675,-0.168,-0.1689,-0.1695,-0.1698,-0.1699,-0.1706,-0.1705,-0.1705,-0.1705,-0.171,-0.171,-0.171,-0.1709,-0.1709,-0.1709,0,0,-0.1617,-0.1622,-0.1626,-0.1632,-0.164,-0.1646,-0.1647,-0.1656,-0.166,-0.1666,-0.1672,-0.1677,-0.1688,-0.1694,-0.1698,-0.17,-0.1704,-0.1702,-0.1701,-0.1705,-0.1705,-0.1705,-0.1707,-0.1707,-0.1703,-0.1702,-0.1702,0,-0.1614,-0.1621,-0.1628,-0.1633,-0.1638,-0.1644,-0.1648,-0.1654,-0.1663,-0.1667,-0.1668,-0.1682,-0.1688,-0.1696,-0.1697,-0.17,-0.1702,-0.1701,-0.1704,-0.1705,-0.1705,-0.1706,-0.1707,-0.1702,-0.1702,-0.1702,-0.1702,0,-0.1617,-0.1622,-0.1624,-0.1634,-0.1639,-0.1643,-0.1651,-0.1655,-0.1659,-0.1665,-0.1672,-0.168,-0.1688,-0.1691,-0.1695,-0.17,-0.17,-0.1703,-0.1705,-0.1705,-0.1706,-0.1707,-0.1702,-0.1702,-0.1702,-0.1702,0,0,-0.1611,-0.1624,-0.1625,-0.163,-0.164,-0.1644,-0.165,-0.1658,-0.1661,-0.1668,-0.1674,-0.1683,-0.1685,-0.169,-0.1695,-0.1699,-0.1701,-0.1701,-0.1701,-0.1701,-0.1708,-0.1707,-0.1707,-0.1704,-0.1704,-0.1704,-0.1708,0,-0.1611,-0.1621,-0.1627,-0.1635,-0.164,-0.1647,-0.1652,-0.1659,-0.1664,-0.167,-0.1677,-0.1683,-0.1686,-0.1689,-0.1693,-0.17,-0.1703,-0.17,-0.1709,-0.171,-0.1707,-0.1708,-0.1706,-0.1709,-0.1708,-0.1708,-0.1708,0,-0.1613,-0.162,-0.1627,-0.1638,-0.164,-0.1644,-0.1653,-0.1658,-0.1667,-0.1671,-0.1677,-0.1682,-0.1689,-0.169,-0.17,-0.1698,-0.1702,-0.1706,-0.1707,-0.1708,-0.1709,-0.171,-0.171,-0.1711,-0.1709,-0.1709,-0.1709,0,-0.1608,-0.1619,-0.1626,-0.163,-0.1641,-0.1644,-0.1649,-0.1658,-0.1663,-0.167,-0.1674,-0.1682,-0.1686,-0.1693,-0.1701,-0.1701,-0.171,-0.1712,-0.1714,-0.1714,-0.1716,-0.1716,-0.1718,-0.1718,-0.1718,-0.1718,-0.1718,0,-0.1608,-0.1613,-0.1624,-0.1628,-0.1634,-0.1642,-0.1647,-0.1653,-0.1661,-0.1666,-0.1673,-0.1678,-0.1688,-0.1694,-0.17,-0.1708,-0.171,-0.1714,-0.1716,-0.1714,-0.1713,-0.1717,-0.1717,-0.1718,-0.1718,-0.1718,-0.1718,0,-0.1604,-0.1612,-0.1619,-0.163,-0.1633,-0.1637,-0.1646,-0.1651,-0.1657,-0.1664,-0.1666,-0.1676,-0.1684,-0.1693,-0.1704,-0.1708,-0.1716,-0.1718,-0.1713,-0.1714,-0.1716,-0.1716,-0.1721,-0.1722,-0.1721,-0.1721,-0.1721,0,-0.1604,-0.1608,-0.1619,-0.1623,-0.1628,-0.1635,-0.164,-0.1648,-0.1653,-0.1663,-0.1667,-0.1676,-0.1683,-0.1696,-0.1705,-0.1714,-0.1716,-0.1717,-0.1718,-0.1716,-0.1717,-0.1717,-0.1718,-0.1717,-0.1717,-0.1717,-0.1717,0,-0.1603,-0.1607,-0.1613,-0.1622,-0.1627,-0.1634,-0.1642,-0.1645,-0.1654,-0.166,-0.1669,-0.1674,-0.1686,-0.1695,-0.1705,-0.1711,-0.1716,-0.1717,-0.1718,-0.1716,-0.1714,-0.1716,-0.1713,-0.1717,-0.1717,-0.1717,-0.1717,-0.1717,-0.1601,-0.1605,-0.1614,-0.1621,-0.1628,-0.1635,-0.164,-0.1646,-0.1654,-0.1664,-0.1668,-0.1677,-0.1687,-0.1701,-0.1707,-0.1714,-0.1715,-0.1717,-0.1717,-0.1718,-0.1717,-0.1712,-0.1716,-0.1716,-0.1716,-0.1716,-0.1716,0,-0.1601,-0.1607,-0.1614,-0.1624,-0.163,-0.1634,-0.1642,-0.1647,-0.1655,-0.1663,-0.1671,-0.1681,-0.169,-0.1699,-0.1709,-0.1714,-0.1716,-0.1716,-0.1716,-0.1717,-0.1715,-0.1714,-0.1714,-0.1714,-0.1714,-0.1714,-0.1714,-0.1714,-0.1601,-0.1609,-0.1613,-0.1624,-0.1631,-0.1639,-0.1644,-0.165,-0.1657,-0.1668,-0.1676,-0.1682,-0.1691,-0.1701,-0.171,-0.1713,-0.1716,-0.1716,-0.1719,-0.1717,-0.1717,-0.1717,-0.1716,-0.1716,-0.1716,-0.172,-0.172,-0.172]},{"header":{"parameterUnit":"m.s-1","parameterCategory":1,"la1":30.2991,"la2":30.254,"lo1":-89.0895,"lo2":-89.0444,"dy":0.0017,"dx":0.0017,"nx":28,"ny":28,"refTime":"2025-12-10T09:00:00:Z","depth":0,"parameterNumber":3,"parameterNumberName":"V-component_of_WINDS"},"data":[0,0,0,0,0,0,0,0,0,0,0,0,0,0,0,0,0,0,0,0,0,0,0,0,0,0,0,0,0,0,0,0,0,0,0,0,0,0,0,0,0,0,0,0,0,0,0,0,0,0,0,0,0,0,0,0,0,0,4.1443,4.1444,0,4.1529,4.153,4.1531,4.1479,4.1477,4.1475,4.1472,4.1555,4.156,4.1564,0,0,0,0,0,0,0,0,0,0,0,0,0,4.1229,4.1233,4.1443,4.1444,4.1445,4.1529,4.153,4.1531,4.148,4.1477,4.1474,4.1471,4.1554,4.1559,4.1564,0,0,0,0,0,0,0,0,0,0,0,0,0,4.1319,4.1235,4.1443,4.143,4.143,4.1528,4.153,4.1531,4.148,4.1477,4.1473,4.147,4.1552,4.1559,4.1565,4.168,0,0,4.1586,4.1589,0,0,0,0,0,0,0,0,4.1314,4.1327,4.1431,4.1431,4.1431,4.149,4.1485,4.1581,4.1481,4.1461,4.1472,4.1468,4.1536,4.1544,4.1568,4.1684,4.1688,4.1586,4.159,4.1593,4.1595,0,0,0,0,0,0,0,4.1308,4.1323,4.1477,4.1432,4.1432,4.1418,4.1427,4.1503,4.1518,4.1463,4.1459,4.147,4.1535,4.1561,4.1569,4.1689,4.1586,4.1592,4.1596,4.1599,4.19,4.1904,0,0,0,0,0,0,4.1303,4.1318,4.1474,4.1479,4.1362,4.1425,4.1434,4.1474,4.1517,4.152,4.1473,4.1467,4.1552,4.1562,4.1572,4.1707,4.1593,4.16,4.1603,4.1896,4.1901,4.1905,0,0,0,0,0,0,4.1299,4.1318,4.1471,4.1398,4.1416,4.1432,4.1478,4.1478,4.1504,4.1525,4.1527,4.1497,4.1549,4.1563,4.1653,4.1709,4.1603,4.1609,4.1891,4.1898,4.1903,4.198,0,0,0,0,0,0,4.1293,4.1317,4.1362,4.1399,4.142,4.1552,4.1481,4.1482,4.1516,4.151,4.1548,4.1551,4.1547,4.1643,4.166,4.1717,4.1614,4.1886,4.1894,4.1901,4.1972,4.1988,4.2001,0,0,0,0,0,4.1286,4.138,4.1365,4.1384,4.1478,4.1556,4.1568,4.1563,4.1521,4.1566,4.1579,4.155,4.1701,4.1653,4.1671,4.1731,4.1883,4.1892,4.1901,4.1966,4.1985,4.2001,0,0,0,0,0,0,4.1347,4.1385,4.1368,4.1478,4.1514,4.1547,4.1603,4.1583,4.1631,4.1622,4.1613,4.1622,4.1716,4.1733,4.1679,4.1843,4.1785,4.1798,4.1829,4.1847,4.1861,4.1854,4.162,0,0,0,0,0,4.1374,4.1436,4.1464,4.1558,4.1577,4.1587,4.1621,4.1614,4.1651,4.1666,4.1685,4.1721,4.1776,4.1812,4.1864,4.1975,4.1981,4.2025,4.2039,4.2051,4.2061,4.2118,4.2137,4.1935,4.1934,4.1934,0,0,4.1429,4.1457,4.1497,4.1571,4.1599,4.1661,4.1601,4.167,4.1715,4.1676,4.1762,4.1778,4.1816,4.1917,4.1962,4.1934,4.2119,4.2062,4.2071,4.2075,4.2129,4.2148,4.2165,4.1941,4.1939,4.1939,0,0,4.1561,4.159,4.1669,4.1698,4.1741,4.1747,4.1766,4.1802,4.1811,4.1898,4.1869,4.1922,4.2018,4.2046,4.2073,4.2214,4.2188,4.2231,4.2305,4.236,4.2376,4.239,4.2438,4.2455,4.2242,4.2242,4.2242,0,4.1623,4.1718,4.1713,4.1784,4.1816,4.1785,4.1864,4.1892,4.1949,4.1971,4.1938,4.2057,4.2081,4.2186,4.222,4.2244,4.2263,4.2226,4.2375,4.2389,4.2402,4.2447,4.2465,4.2247,4.2246,4.2246,4.2245,0,4.1791,4.1857,4.1916,4.1973,4.2012,4.2087,4.2091,4.2131,4.212,4.2129,4.2216,4.2244,4.23,4.2324,4.2315,4.2428,4.2408,4.2376,4.2317,4.2426,4.2468,4.2486,4.2254,4.2252,4.225,4.2249,0,0,4.1964,4.2017,4.2038,4.2062,4.2107,4.2156,4.2228,4.2284,4.2318,4.2358,4.2416,4.2497,4.2467,4.2497,4.249,4.2539,4.2646,4.25,4.2501,4.2524,4.2769,4.2792,4.2812,4.263,4.2633,4.2636,4.2765,0,4.2097,4.2225,4.2221,4.2339,4.2398,4.2369,4.2431,4.2463,4.2473,4.2523,4.2532,4.2589,4.2546,4.2564,4.2612,4.2623,4.2694,4.2614,4.2681,4.2684,4.2671,4.2835,4.286,4.2981,4.2782,4.2785,4.2787,0,4.2269,4.2315,4.2439,4.2473,4.2497,4.2554,4.2604,4.2653,4.2688,4.2691,4.2725,4.2709,4.278,4.2721,4.2816,4.2761,4.2789,4.2798,4.2803,4.2807,4.2741,4.2842,4.3019,4.3037,4.2813,4.2811,4.2809,0,4.238,4.2473,4.2559,4.2581,4.2623,4.2663,4.2682,4.2714,4.2747,4.279,4.281,4.2861,4.2888,4.2926,4.2924,4.2881,4.302,4.2961,4.3022,4.3022,4.3051,4.3049,4.3234,4.3073,4.3072,4.3072,4.3072,0,4.2527,4.2604,4.2609,4.2662,4.2745,4.274,4.2822,4.2837,4.2865,4.2918,4.2896,4.2945,4.294,4.299,4.2988,4.3066,4.3079,4.3082,4.308,4.3083,4.3082,4.3099,4.309,4.3077,4.3076,4.3075,4.3074,0,4.2665,4.2672,4.2763,4.2795,4.2805,4.2865,4.2891,4.294,4.2947,4.3014,4.3029,4.304,4.3097,4.3099,4.3165,4.3163,4.3258,4.3247,4.3246,4.3243,4.3304,4.3297,4.3504,4.353,4.3354,4.3356,4.3357,0,4.2758,4.2816,4.2854,4.2888,4.291,4.2966,4.3,4.2996,4.3031,4.3075,4.3118,4.3173,4.3217,4.3309,4.3321,4.337,4.336,4.3429,4.3367,4.3367,4.3358,4.3354,4.3358,4.344,4.3442,4.3444,4.3445,0,4.2921,4.2921,4.2971,4.3023,4.3064,4.3103,4.314,4.3169,4.3169,4.321,4.3268,4.3303,4.3369,4.3423,4.347,4.3487,4.3466,4.3465,4.3481,4.3484,4.3479,4.348,4.3277,4.346,4.3458,4.3457,4.3456,4.3456,4.3037,4.3087,4.3121,4.3177,4.3204,4.3239,4.3286,4.3299,4.3348,4.3403,4.3397,4.3461,4.3492,4.3554,4.3575,4.3624,4.36,4.3624,4.363,4.3635,4.3641,4.3473,4.3633,4.3632,4.3632,4.3632,4.3631,0,4.3197,4.3218,4.327,4.3322,4.3365,4.3343,4.3382,4.3419,4.3476,4.3508,4.3552,4.3617,4.3669,4.3686,4.3735,4.3771,4.3762,4.3784,4.378,4.3784,4.3661,4.3641,4.379,4.379,4.379,4.379,4.379,4.379,4.3286,4.3367,4.3371,4.3465,4.3484,4.3548,4.3572,4.3603,4.3628,4.3703,4.3746,4.3757,4.3782,4.3833,4.3879,4.3882,4.39,4.3926,4.3925,4.3809,4.3793,4.3778,4.3759,4.3931,4.3931,4.4044,4.4045,4.4046]}]]